Location: Kerberlivit
(48.2787°N, 4.5413°W)
Time: 23:28:09
(UTC+00:00)

Cosmos 1666 Rocket - Pass Details

Date: 18 February 2020
Orbit: 603 x 634 km, 82.5° (Epoch: 04 April)

Event Time Altitude Azimuth Distance (km) Brightness Sun altitude
Rises 06:00:36 0° 352° (N) 2,934 6.9 -14.0°
Reaches altitude 10° 06:02:53 10° 356° (N) 2,018 6.1 -13.6°
Maximum altitude 06:07:20 64° 78° (ENE) 694 4.1 -12.9°
Drops below altitude 10° 06:11:42 10° 161° (SSE) 1,983 6.5 -12.2°
Sets 06:13:55 0° 164° (SSE) 2,879 7.3 -11.8°
